• In France
  • List of Countries
  • For 7 days
  • Water Temperature
  • Satellite Maps
  • Weather Map
  • Weather Widgets
  • user-avatar
    Login

    Hourly Weather Horta

    Today, 17 October, Wednesday

    Time Temperature Precipitation Wind Pressure Humidity
    00:00 +5°C° 0 mm 1 mps 596 mmHg 83%
    01:00 +4°C° 0 mm 1 mps 595 mmHg 82%
    02:00 +4°C° 0 mm 1 mps 595 mmHg 81%
    03:00 +4°C° 0 mm 1 mps 595 mmHg 79%
    04:00 +4°C° 0 mm 1 mps 595 mmHg 76%
    05:00 +4°C° 0 mm 1 mps 595 mmHg 73%
    06:00 +4°C° 0 mm 1 mps 595 mmHg 70%
    07:00 +6°C° 0 mm 1 mps 596 mmHg 62%
    08:00 +8°C° 0 mm 1 mps 597 mmHg 54%
    09:00 +10°C° 0 mm 1 mps 598 mmHg 46%
    10:00 +11°C° 0 mm 1 mps 598 mmHg 44%
    11:00 +12°C° 0 mm 2 mps 598 mmHg 42%
    12:00 +13°C° 0 mm 2 mps 598 mmHg 41%
    13:00 +13°C° 0 mm 2 mps 598 mmHg 43%
    14:00 +13°C° 0 mm 2 mps 598 mmHg 46%
    15:00 +12°C° 0 mm 2 mps 597 mmHg 48%
    16:00 +9°C° 0 mm 2 mps 596 mmHg 59%
    17:00 +8°C° 0 mm 1 mps 596 mmHg 70%
    18:00 +6°C° 0 mm 1 mps 595 mmHg 81%
    19:00 +6°C° 0 mm 1 mps 594 mmHg 79%
    20:00 +6°C° 0 mm 1 mps 594 mmHg 77%
    21:00 +5°C° 0 mm 1 mps 594 mmHg 76%
    22:00 +5°C° 0 mm 1 mps 594 mmHg 72%
    23:00 +5°C° 0 mm 1 mps 594 mmHg 68%

    Tomorrow, 18 October, Thursday

    Time Temperature Precipitation Wind Pressure Humidity
    00:00 +5°C° 0 mm 1 mps 594 mmHg 64%
    01:00 +5°C° 0 mm 1 mps 594 mmHg 59%
    02:00 +5°C° 0 mm 1 mps 593 mmHg 55%
    03:00 +4°C° 0 mm 1 mps 593 mmHg 50%
    04:00 +4°C° 0 mm 1 mps 593 mmHg 44%
    05:00 +4°C° 0 mm 1 mps 593 mmHg 38%
    06:00 +4°C° 0 mm 1 mps 593 mmHg 32%
    07:00 +6°C° 0 mm 1 mps 594 mmHg 29%
    08:00 +9°C° 0 mm 1 mps 595 mmHg 25%
    09:00 +11°C° 0 mm 1 mps 596 mmHg 22%
    10:00 +12°C° 0 mm 1 mps 597 mmHg 22%
    11:00 +13°C° 0 mm 1 mps 597 mmHg 23%
    12:00 +14°C° 0 mm 2 mps 597 mmHg 23%
    13:00 +14°C° 0 mm 2 mps 597 mmHg 27%
    14:00 +13°C° 0 mm 2 mps 597 mmHg 30%
    15:00 +13°C° 0 mm 2 mps 596 mmHg 33%
    16:00 +11°C° 0 mm 1 mps 595 mmHg 44%
    17:00 +9°C° 0 mm 1 mps 594 mmHg 55%
    18:00 +6°C° 0 mm 1 mps 593 mmHg 65%
    19:00 +6°C° 0 mm 1 mps 593 mmHg 63%
    20:00 +6°C° 0 mm 1 mps 593 mmHg 60%
    21:00 +6°C° 0 mm 1 mps 594 mmHg 58%
    22:00 +5°C° 0 mm 1 mps 593 mmHg 58%
    23:00 +5°C° 0 mm 1 mps 593 mmHg 58%

    Day after tomorrow, 19 October, Friday

    Time Temperature Precipitation Wind Pressure Humidity
    00:00 +4°C° 0 mm 2 mps 593 mmHg 58%
    01:00 +3°C° 0 mm 2 mps 593 mmHg 60%
    02:00 +3°C° 0 mm 2 mps 593 mmHg 62%
    03:00 +3°C° 0 mm 2 mps 592 mmHg 64%
    04:00 +3°C° 0 mm 2 mps 592 mmHg 64%
    05:00 +3°C° 0 mm 2 mps 592 mmHg 63%
    06:00 +3°C° 0 mm 2 mps 592 mmHg 63%
    07:00 +5°C° 0 mm 2 mps 593 mmHg 55%
    08:00 +8°C° 0 mm 1 mps 594 mmHg 47%
    09:00 +11°C° 0 mm 1 mps 596 mmHg 39%
    10:00 +12°C° 0 mm 1 mps 596 mmHg 36%
    11:00 +13°C° 0 mm 1 mps 596 mmHg 34%
    12:00 +14°C° 0 mm 1 mps 596 mmHg 31%
    13:00 +14°C° 0 mm 1 mps 596 mmHg 33%
    14:00 +14°C° 0 mm 1 mps 596 mmHg 35%
    15:00 +14°C° 0 mm 1 mps 595 mmHg 37%
    16:00 +11°C° 0 mm 1 mps 594 mmHg 47%
    17:00 +9°C° 0 mm 1 mps 593 mmHg 56%
    18:00 +7°C° 0 mm 1 mps 592 mmHg 66%
    19:00 +7°C° 0 mm 1 mps 592 mmHg 67%
    20:00 +6°C° 0 mm 1 mps 592 mmHg 68%
    21:00 +5°C° 0 mm 2 mps 592 mmHg 69%
    22:00 +5°C° 0 mm 2 mps 592 mmHg 71%
    23:00 +4°C° 0 mm 2 mps 592 mmHg 72%

    20 October, Saturday

    Time Temperature Precipitation Wind Pressure Humidity
    00:00 +4°C° 0 mm 2 mps 591 mmHg 74%
    01:00 +4°C° 0 mm 2 mps 591 mmHg 72%
    02:00 +4°C° 0 mm 2 mps 591 mmHg 70%
    03:00 +4°C° 0 mm 2 mps 591 mmHg 68%
    04:00 +3°C° 0 mm 2 mps 591 mmHg 63%
    05:00 +3°C° 0 mm 2 mps 591 mmHg 59%
    06:00 +3°C° 0 mm 2 mps 590 mmHg 54%
    07:00 +6°C° 0 mm 2 mps 592 mmHg 46%
    08:00 +9°C° 0 mm 1 mps 593 mmHg 39%
    09:00 +12°C° 0 mm 1 mps 594 mmHg 31%
    10:00 +13°C° 0 mm 1 mps 594 mmHg 30%
    11:00 +14°C° 0 mm 2 mps 594 mmHg 28%
    12:00 +15°C° 0 mm 2 mps 594 mmHg 26%
    13:00 +15°C° 0 mm 2 mps 594 mmHg 28%
    14:00 +15°C° 0 mm 2 mps 594 mmHg 30%
    15:00 +14°C° 0 mm 2 mps 594 mmHg 31%
    16:00 +12°C° 0 mm 1 mps 593 mmHg 37%
    17:00 +10°C° 0 mm 1 mps 592 mmHg 43%
    18:00 +8°C° 0 mm 1 mps 591 mmHg 49%
    19:00 +8°C° 0 mm 1 mps 591 mmHg 48%
    20:00 +8°C° 0 mm 1 mps 591 mmHg 47%
    21:00 +7°C° 0 mm 1 mps 591 mmHg 45%
    22:00 +7°C° 0 mm 1 mps 591 mmHg 45%
    23:00 +7°C° 0 mm 1 mps 591 mmHg 45%

    21 October, Sunday

    Time Temperature Precipitation Wind Pressure Humidity
    00:00 +6°C° 0 mm 1 mps 591 mmHg 45%
    01:00 +6°C° 0 mm 1 mps 590 mmHg 46%
    02:00 +6°C° 0 mm 1 mps 590 mmHg 46%
    03:00 +6°C° 0 mm 1 mps 590 mmHg 47%
    04:00 +6°C° 0 mm 1 mps 590 mmHg 48%
    05:00 +6°C° 0 mm 1 mps 590 mmHg 49%
    06:00 +6°C° 0 mm 1 mps 590 mmHg 50%
    07:00 +8°C° 0 mm 1 mps 591 mmHg 46%
    08:00 +10°C° 0 mm 1 mps 592 mmHg 41%
    09:00 +12°C° 0 mm 1 mps 593 mmHg 37%
    10:00 +13°C° 0 mm 1 mps 593 mmHg 37%
    11:00 +14°C° 0 mm 1 mps 593 mmHg 37%
    12:00 +15°C° 0 mm 2 mps 594 mmHg 36%
    13:00 +14°C° 0 mm 1 mps 593 mmHg 38%
    14:00 +14°C° 0 mm 1 mps 593 mmHg 40%
    15:00 +13°C° 0 mm 1 mps 593 mmHg 42%
    16:00 +12°C° 0 mm 1 mps 592 mmHg 48%
    17:00 +10°C° 0 mm 1 mps 591 mmHg 54%
    18:00 +8°C° 0 mm 0 mps 591 mmHg 60%
    19:00 +8°C° 0 mm 1 mps 591 mmHg 60%
    20:00 +8°C° 0 mm 1 mps 591 mmHg 61%
    21:00 +8°C° 0 mm 1 mps 591 mmHg 61%
    22:00 +8°C° 0 mm 1 mps 591 mmHg 62%
    23:00 +7°C° 0 mm 1 mps 590 mmHg 63%

    22 October, Monday

    Time Temperature Precipitation Wind Pressure Humidity
    00:00 +7°C° 0 mm 1 mps 590 mmHg 64%
    01:00 +7°C° 0 mm 1 mps 590 mmHg 64%
    02:00 +7°C° 0 mm 1 mps 590 mmHg 63%
    03:00 +7°C° 0 mm 1 mps 590 mmHg 63%
    04:00 +6°C° 0 mm 1 mps 590 mmHg 63%
    05:00 +6°C° 0 mm 1 mps 590 mmHg 63%
    06:00 +6°C° 0 mm 1 mps 590 mmHg 62%
    07:00 +8°C° 0 mm 1 mps 591 mmHg 58%
    08:00 +9°C° 0 mm 1 mps 592 mmHg 53%
    09:00 +11°C° 0 mm 1 mps 593 mmHg 48%
    10:00 +12°C° 0 mm 1 mps 593 mmHg 46%
    11:00 +13°C° 0 mm 2 mps 593 mmHg 45%
    12:00 +14°C° 0 mm 2 mps 594 mmHg 44%
    13:00 +14°C° 0 mm 2 mps 593 mmHg 45%
    14:00 +13°C° 0 mm 2 mps 593 mmHg 47%
    15:00 +13°C° 0 mm 2 mps 593 mmHg 49%
    16:00 +12°C° 0 mm 1 mps 593 mmHg 56%
    17:00 +10°C° 0 mm 1 mps 592 mmHg 62%
    18:00 +8°C° 0 mm 0 mps 592 mmHg 69%
    19:00 +8°C° 0.1 mm 1 mps 592 mmHg 69%
    20:00 +8°C° 0.1 mm 1 mps 592 mmHg 69%
    21:00 +7°C° 0.1 mm 1 mps 592 mmHg 68%
    22:00 +7°C° 0 mm 1 mps 592 mmHg 68%
    23:00 +7°C° 0 mm 1 mps 592 mmHg 68%
    Show more